Location: Detroit
(42.3310°N, 83.0460°W)
Time: 20:26:01
(UTC-05:00)

Tiros 1 despin weight - Visible Passes

Search period start: 28 November 2023 00:00
Search period end: 08 December 2023 00:00
Orbit: 583 x 628 km, 48.2° (Epoch: 28 November)

Date Brightness Start Highest point End Pass type
(mag) Time Alt. Az. Time Alt. Az. Time Alt. Az.
29 Nov ? 19:20:28 10° S 19:21:12 13° S 19:21:12 13° S visible
30 Nov ? 19:31:49 10° SSW 19:33:27 20° SSW 19:33:27 20° SSW visible
01 Dec ? 18:05:45 10° SSE 18:07:25 12° SE 18:08:48 11° ESE visible
01 Dec ? 19:43:42 10° SW 19:45:37 25° SW 19:45:37 25° SW visible
02 Dec ? 18:16:02 10° S 18:19:24 22° SE 18:20:54 18° ESE visible
02 Dec ? 19:55:54 10° WSW 19:57:43 24° WSW 19:57:43 24° WSW visible
03 Dec ? 18:27:27 10° SSW 18:31:30 38° SE 18:32:55 29° E visible
03 Dec ? 20:08:21 10° W 20:09:43 19° W 20:09:43 19° W visible
04 Dec ? 18:39:21 10° SW 18:43:40 65° SSE 18:44:52 44° E visible
04 Dec ? 20:20:54 10° W 20:21:39 14° W 20:21:39 14° W visible
05 Dec ? 18:51:34 10° WSW 18:55:56 81° NNW 18:56:44 58° NE visible
05 Dec ? 20:33:28 10° WNW 20:33:31 10° WNW 20:33:31 10° WNW visible
06 Dec ? 19:03:59 10° W 19:08:17 56° NNW 19:08:33 55° N visible
07 Dec ? 17:34:54 10° SW 17:39:15 69° SSE 17:43:33 10° ENE visible
07 Dec ? 19:16:31 10° W 19:20:20 43° NNW 19:20:20 43° NNW visible
